[[{"header":{"parameterUnit":"m.s-1","parameterCategory":1,"la1":30.2991,"la2":30.254,"lo1":-89.0895,"lo2":-89.0444,"dy":0.0017,"dx":0.0017,"nx":28,"ny":28,"refTime":"2024-04-24T09:00:00:Z","depth":0,"parameterNumber":2,"parameterNumberName":"U-component_of_WINDS"},"data":[0,0,0,0,0,0,0,0,0,0,0,0,0,0,0,0,0,0,0,0,0,0,0,0,0,0,0,0,0,0,0,0,0,0,0,0,0,0,0,0,0,0,0,0,0,0,0,0,0,0,0,0,0,0,0,0,0,0,-1.6115,-1.6115,0,-1.6117,-1.6117,-1.6117,-1.6082,-1.6081,-1.608,-1.6079,-1.6082,-1.6083,-1.6084,0,0,0,0,0,0,0,0,0,0,0,0,0,-1.6083,-1.6084,-1.6115,-1.6115,-1.6115,-1.6117,-1.6117,-1.6117,-1.6082,-1.6081,-1.608,-1.6079,-1.6081,-1.6083,-1.6084,0,0,0,0,0,0,0,0,0,0,0,0,0,-1.6092,-1.6084,-1.6115,-1.6098,-1.6097,-1.6117,-1.6117,-1.6117,-1.6083,-1.6081,-1.608,-1.6078,-1.6081,-1.6082,-1.6084,-1.6121,0,0,-1.6088,-1.6089,0,0,0,0,0,0,0,0,-1.6092,-1.6093,-1.6101,-1.6099,-1.6098,-1.6098,-1.6106,-1.6118,-1.6083,-1.6088,-1.6079,-1.6078,-1.6088,-1.6089,-1.6093,-1.6121,-1.6121,-1.6088,-1.6089,-1.609,-1.609,0,0,0,0,0,0,0,-1.6091,-1.6093,-1.6116,-1.6101,-1.6099,-1.6091,-1.609,-1.6109,-1.6096,-1.6087,-1.6085,-1.6086,-1.6087,-1.6091,-1.6092,-1.6121,-1.6088,-1.609,-1.609,-1.6091,-1.618,-1.6182,0,0,0,0,0,0,-1.6093,-1.6093,-1.6116,-1.6116,-1.6091,-1.6092,-1.6092,-1.6099,-1.6096,-1.6094,-1.6087,-1.6084,-1.609,-1.6091,-1.6092,-1.6135,-1.609,-1.6091,-1.6092,-1.6179,-1.6181,-1.6182,0,0,0,0,0,0,-1.6092,-1.6095,-1.6116,-1.6104,-1.6106,-1.6095,-1.6103,-1.61,-1.6104,-1.6095,-1.6093,-1.6093,-1.6088,-1.609,-1.6114,-1.6135,-1.6092,-1.6093,-1.6177,-1.618,-1.6182,-1.6222,0,0,0,0,0,0,-1.6091,-1.6095,-1.6109,-1.6104,-1.6106,-1.6138,-1.6104,-1.6101,-1.6106,-1.6103,-1.6101,-1.6099,-1.6087,-1.6112,-1.6115,-1.6136,-1.6094,-1.6175,-1.6178,-1.6181,-1.6219,-1.6226,-1.6231,0,0,0,0,0,-1.609,-1.612,-1.611,-1.6113,-1.6123,-1.6139,-1.614,-1.6126,-1.6108,-1.6122,-1.6117,-1.6099,-1.6132,-1.6115,-1.6118,-1.614,-1.6174,-1.6177,-1.6181,-1.6216,-1.6224,-1.6231,0,0,0,0,0,0,-1.6127,-1.6119,-1.6107,-1.6137,-1.6139,-1.6133,-1.615,-1.6135,-1.6143,-1.6139,-1.6121,-1.6121,-1.6148,-1.6146,-1.6127,-1.6176,-1.615,-1.6154,-1.6176,-1.6183,-1.6189,-1.6189,-1.6095,0,0,0,0,0,-1.6139,-1.6152,-1.6144,-1.6171,-1.6172,-1.6161,-1.6167,-1.6157,-1.6158,-1.6159,-1.6155,-1.6157,-1.6168,-1.6176,-1.6185,-1.6219,-1.6218,-1.6235,-1.6241,-1.6247,-1.625,-1.6268,-1.6276,-1.6194,-1.6194,-1.6194,0,0,-1.6163,-1.616,-1.617,-1.6178,-1.6179,-1.6193,-1.6162,-1.6178,-1.6188,-1.6161,-1.6183,-1.6181,-1.6182,-1.6211,-1.6223,-1.621,-1.6273,-1.6251,-1.6255,-1.6256,-1.6272,-1.628,-1.6287,-1.6196,-1.6196,-1.6195,0,0,-1.6214,-1.6213,-1.6236,-1.6237,-1.6237,-1.623,-1.6235,-1.6232,-1.6229,-1.6251,-1.623,-1.6243,-1.6262,-1.6264,-1.6267,-1.632,-1.6304,-1.6324,-1.6356,-1.6373,-1.638,-1.6385,-1.6404,-1.6411,-1.6327,-1.6328,-1.6328,0,-1.6244,-1.6264,-1.6249,-1.6267,-1.6271,-1.6247,-1.6269,-1.6271,-1.6275,-1.6279,-1.6264,-1.6288,-1.6287,-1.6316,-1.6329,-1.6333,-1.6339,-1.6324,-1.638,-1.6386,-1.6391,-1.6408,-1.6415,-1.633,-1.633,-1.6329,-1.6329,0,-1.6301,-1.6316,-1.6334,-1.6338,-1.6345,-1.6365,-1.6352,-1.6361,-1.635,-1.6344,-1.6367,-1.6365,-1.6374,-1.638,-1.637,-1.6408,-1.64,-1.6383,-1.6357,-1.6401,-1.6417,-1.6424,-1.6333,-1.6332,-1.6332,-1.6331,0,0,-1.6376,-1.6372,-1.6378,-1.638,-1.6379,-1.639,-1.6409,-1.6418,-1.6426,-1.643,-1.6445,-1.6462,-1.6447,-1.6451,-1.644,-1.6456,-1.6497,-1.6437,-1.6436,-1.6448,-1.654,-1.6553,-1.6561,-1.6487,-1.6488,-1.6489,-1.654,0,-1.6426,-1.6458,-1.6444,-1.6478,-1.6491,-1.6469,-1.6485,-1.6487,-1.6482,-1.6493,-1.6487,-1.6499,-1.6478,-1.648,-1.6494,-1.6489,-1.6516,-1.6485,-1.6502,-1.6502,-1.6502,-1.6569,-1.6583,-1.663,-1.6546,-1.6547,-1.6548,0,-1.6488,-1.6494,-1.6529,-1.6526,-1.6531,-1.6546,-1.6553,-1.6563,-1.6565,-1.656,-1.6565,-1.6551,-1.657,-1.6544,-1.657,-1.655,-1.6556,-1.6554,-1.6556,-1.6557,-1.6528,-1.6572,-1.6645,-1.6653,-1.6558,-1.6557,-1.6556,0,-1.6539,-1.6556,-1.6579,-1.6581,-1.6578,-1.6589,-1.6589,-1.6589,-1.6595,-1.6601,-1.6605,-1.6614,-1.6618,-1.6625,-1.6614,-1.6596,-1.6642,-1.6615,-1.6639,-1.6639,-1.6649,-1.6648,-1.6724,-1.6653,-1.6653,-1.6653,-1.6653,0,-1.6596,-1.6618,-1.6602,-1.6616,-1.664,-1.6625,-1.665,-1.6646,-1.6647,-1.666,-1.6641,-1.6654,-1.6639,-1.665,-1.6642,-1.6665,-1.6667,-1.6664,-1.6661,-1.6665,-1.6666,-1.6669,-1.6665,-1.6655,-1.6654,-1.6654,-1.6654,0,-1.6657,-1.6647,-1.667,-1.6666,-1.6665,-1.6683,-1.6679,-1.6693,-1.6686,-1.6704,-1.6707,-1.6697,-1.671,-1.6699,-1.6712,-1.6706,-1.6736,-1.6729,-1.6736,-1.6734,-1.6758,-1.6756,-1.6839,-1.6849,-1.6771,-1.6772,-1.6772,0,-1.6694,-1.6711,-1.6708,-1.6715,-1.6716,-1.6728,-1.6734,-1.672,-1.6727,-1.673,-1.6743,-1.6754,-1.6762,-1.6784,-1.6778,-1.6788,-1.678,-1.6809,-1.6782,-1.6785,-1.6781,-1.678,-1.6782,-1.6814,-1.6815,-1.6816,-1.6816,0,-1.6761,-1.6755,-1.6765,-1.6772,-1.678,-1.6786,-1.679,-1.6797,-1.6783,-1.6792,-1.6804,-1.6811,-1.6823,-1.6835,-1.6842,-1.6842,-1.6827,-1.6825,-1.6831,-1.6835,-1.6839,-1.6837,-1.6751,-1.6823,-1.6822,-1.6822,-1.6822,-1.6821,-1.6811,-1.6825,-1.6825,-1.6836,-1.6838,-1.6842,-1.6854,-1.6849,-1.686,-1.6869,-1.686,-1.6875,-1.6876,-1.6885,-1.6886,-1.6899,-1.6887,-1.6896,-1.6898,-1.69,-1.6904,-1.6837,-1.69,-1.69,-1.6899,-1.6899,-1.6899,0,-1.6877,-1.6876,-1.6887,-1.6893,-1.6902,-1.6887,-1.689,-1.6899,-1.6913,-1.6915,-1.6923,-1.6938,-1.6949,-1.6944,-1.6954,-1.6964,-1.6958,-1.6967,-1.6967,-1.6967,-1.6913,-1.6907,-1.6973,-1.6973,-1.6973,-1.6973,-1.6973,-1.6973,-1.6913,-1.6935,-1.6929,-1.6952,-1.6951,-1.6966,-1.6969,-1.6973,-1.6975,-1.6992,-1.7001,-1.6998,-1.6997,-1.7007,-1.7016,-1.7015,-1.7019,-1.7031,-1.7027,-1.6978,-1.697,-1.6964,-1.6958,-1.7033,-1.7033,-1.708,-1.708,-1.708]},{"header":{"parameterUnit":"m.s-1","parameterCategory":1,"la1":30.2991,"la2":30.254,"lo1":-89.0895,"lo2":-89.0444,"dy":0.0017,"dx":0.0017,"nx":28,"ny":28,"refTime":"2024-04-24T09:00:00:Z","depth":0,"parameterNumber":3,"parameterNumberName":"V-component_of_WINDS"},"data":[0,0,0,0,0,0,0,0,0,0,0,0,0,0,0,0,0,0,0,0,0,0,0,0,0,0,0,0,0,0,0,0,0,0,0,0,0,0,0,0,0,0,0,0,0,0,0,0,0,0,0,0,0,0,0,0,0,0,4.6836,4.6836,0,4.6832,4.6832,4.6832,4.675,4.6748,4.6746,4.6744,4.674,4.6742,4.6743,0,0,0,0,0,0,0,0,0,0,0,0,0,4.6774,4.6776,4.6836,4.6836,4.6836,4.6832,4.6832,4.6832,4.6751,4.6748,4.6746,4.6743,4.6739,4.6741,4.6744,0,0,0,0,0,0,0,0,0,0,0,0,0,4.6789,4.6776,4.6836,4.6795,4.6791,4.6832,4.6832,4.6832,4.6751,4.6748,4.6745,4.6742,4.6739,4.6741,4.6744,4.6823,0,0,4.6752,4.6753,0,0,0,0,0,0,0,0,4.6788,4.6791,4.6801,4.6798,4.6794,4.6788,4.6808,4.6829,4.6752,4.6767,4.6744,4.6741,4.6759,4.6759,4.6765,4.6823,4.6823,4.6752,4.6754,4.6755,4.6756,0,0,0,0,0,0,0,4.6787,4.6791,4.6834,4.6801,4.6797,4.6777,4.6775,4.6812,4.678,4.6765,4.6759,4.676,4.6756,4.6763,4.6765,4.6823,4.6752,4.6755,4.6757,4.6758,4.6944,4.6947,0,0,0,0,0,0,4.6792,4.6791,4.6834,4.6834,4.6783,4.6781,4.6779,4.6793,4.6779,4.6774,4.6762,4.6756,4.676,4.6762,4.6764,4.6855,4.6755,4.6758,4.6759,4.6941,4.6945,4.6948,0,0,0,0,0,0,4.6791,4.6797,4.6835,4.6811,4.6814,4.6785,4.6802,4.6795,4.6802,4.6777,4.6771,4.6775,4.6757,4.676,4.6809,4.6854,4.6759,4.6762,4.6937,4.6942,4.6946,4.7038,0,0,0,0,0,0,4.6789,4.6797,4.6827,4.6812,4.6816,4.688,4.6805,4.6797,4.6807,4.6798,4.6788,4.6783,4.6755,4.6805,4.6812,4.6856,4.6764,4.6933,4.6939,4.6945,4.703,4.7045,4.7058,0,0,0,0,0,4.6787,4.6853,4.6828,4.6834,4.6852,4.6882,4.6884,4.6851,4.6811,4.684,4.6825,4.6784,4.6848,4.6811,4.6817,4.6863,4.693,4.6937,4.6944,4.7024,4.7042,4.7057,0,0,0,0,0,0,4.6873,4.685,4.6823,4.6885,4.6887,4.6869,4.6905,4.6871,4.6883,4.6875,4.6833,4.6831,4.6886,4.6879,4.6838,4.6938,4.6882,4.6891,4.694,4.6957,4.697,4.697,4.6766,0,0,0,0,0,4.69,4.6926,4.6904,4.6961,4.6963,4.6934,4.6946,4.692,4.6919,4.6919,4.6907,4.6908,4.6928,4.6943,4.696,4.703,4.7026,4.7064,4.7078,4.7089,4.7097,4.7132,4.7149,4.6973,4.6973,4.6972,0,0,4.6954,4.6945,4.6964,4.6978,4.6976,4.7004,4.6935,4.6968,4.6988,4.6924,4.6969,4.696,4.6958,4.7018,4.7043,4.7014,4.7145,4.7099,4.7108,4.7109,4.7142,4.7158,4.7173,4.6978,4.6977,4.6976,0,0,4.7067,4.7063,4.7109,4.7109,4.7106,4.7086,4.7098,4.7085,4.7076,4.712,4.7073,4.7097,4.7133,4.7133,4.7138,4.7251,4.7214,4.7258,4.7329,4.7363,4.7377,4.7389,4.7428,4.7443,4.7267,4.7267,4.7267,0,4.7134,4.7174,4.7138,4.7173,4.718,4.7125,4.7171,4.7172,4.7176,4.7182,4.715,4.7193,4.7188,4.7246,4.7273,4.728,4.7291,4.7258,4.7378,4.739,4.7401,4.7437,4.7452,4.7272,4.7272,4.7271,4.7271,0,4.7257,4.7286,4.7323,4.7327,4.7339,4.7381,4.735,4.7366,4.734,4.7323,4.7369,4.7361,4.7375,4.7387,4.7362,4.7442,4.7423,4.7386,4.7327,4.7423,4.7457,4.7471,4.728,4.7278,4.7276,4.7275,0,0,4.7423,4.7406,4.742,4.7421,4.7414,4.7435,4.7474,4.7487,4.7502,4.7507,4.7537,4.7569,4.7533,4.7539,4.7513,4.7544,4.7633,4.7502,4.7501,4.7525,4.7718,4.7746,4.7762,4.7609,4.7611,4.7613,4.7718,0,4.753,4.7594,4.7562,4.763,4.7655,4.7602,4.7636,4.7635,4.7621,4.764,4.7625,4.7648,4.76,4.7603,4.7631,4.7616,4.7671,4.7608,4.7635,4.7637,4.7635,4.778,4.7809,4.7908,4.7731,4.7733,4.7735,0,4.7664,4.7673,4.7743,4.7731,4.774,4.7771,4.778,4.78,4.7798,4.7785,4.7792,4.7759,4.7795,4.7739,4.7788,4.7746,4.7756,4.775,4.7753,4.7753,4.769,4.7782,4.7939,4.7954,4.7755,4.7754,4.7752,0,4.7776,4.7806,4.7851,4.7854,4.7841,4.7863,4.7859,4.7854,4.7864,4.7873,4.7879,4.7892,4.7899,4.791,4.7881,4.7844,4.7934,4.7876,4.7924,4.7925,4.7944,4.7943,4.8103,4.7954,4.7953,4.7953,4.7953,0,4.7898,4.7942,4.7901,4.7929,4.7977,4.794,4.7989,4.7979,4.7975,4.8,4.7956,4.7981,4.7942,4.7962,4.794,4.7984,4.7988,4.7978,4.7971,4.7981,4.7982,4.7985,4.7977,4.7957,4.7956,4.7955,4.7955,0,4.803,4.8004,4.805,4.8034,4.8031,4.8067,4.8053,4.8078,4.8061,4.8093,4.8099,4.8072,4.8094,4.8067,4.8087,4.8072,4.813,4.8114,4.8131,4.8125,4.8174,4.817,4.8341,4.8361,4.8201,4.8202,4.8203,0,4.8109,4.8142,4.8129,4.8142,4.814,4.8162,4.8172,4.8138,4.815,4.815,4.8175,4.8193,4.8205,4.8242,4.8225,4.824,4.8222,4.8282,4.8224,4.8233,4.8221,4.8219,4.8221,4.8293,4.8295,4.8296,4.8298,0,4.8251,4.8236,4.8252,4.8264,4.8276,4.8284,4.8288,4.8302,4.8265,4.8281,4.8302,4.8312,4.8332,4.835,4.836,4.8355,4.832,4.8316,4.8327,4.8337,4.8344,4.8339,4.8161,4.8312,4.831,4.8309,4.8308,4.8308,4.8358,4.8384,4.8379,4.8397,4.8397,4.8402,4.8424,4.841,4.8427,4.8439,4.8418,4.8445,4.8442,4.8451,4.8451,4.8471,4.8446,4.8463,4.8467,4.8472,4.8478,4.8343,4.8473,4.8473,4.8473,4.8472,4.8472,0,4.8496,4.849,4.8508,4.8514,4.8529,4.8495,4.8498,4.8512,4.8536,4.8536,4.8549,4.8574,4.8591,4.8575,4.8589,4.8609,4.8593,4.8613,4.8611,4.861,4.8501,4.8489,4.8626,4.8626,4.8626,4.8626,4.8626,4.8626,4.8569,4.8612,4.8597,4.8638,4.8631,4.8657,4.8661,4.8665,4.8665,4.8694,4.8708,4.8697,4.8691,4.8704,4.8718,4.8713,4.872,4.8746,4.8735,4.8633,4.8618,4.8603,4.8591,4.8748,4.8748,4.8842,4.8843,4.8843]}]]